This demonstration page uses our WeatherBlox Daily Observations layout. Learn more.

Left ArrowRight Arrow

40.92945, -100.16068

Hourly Observations for November 12, 2018

Temp ( °F °C ) Dew Point ( °F °C ) Humidity (%) Winds ( mph kmh ) Pressure ( in mb ) Visibility ( mi km ) Precip ( " mm )
12:15 am 00:15 Mostly Cloudy 27 -3 22 -5.7 82 82 N 7 11 30.53 1034 10 16.0934 0 0
12:35 am 00:35 Cloudy 28 -2.5 22 -5.6 80 80 N 7 11 30.53 1034 10 16.0934 0 0
12:55 am 00:55 Cloudy 28 -2.2 22 -5.5 78 78 N 6 9 30.53 1034 10 16.0934 0 0
1:15 am 01:15 Partly Cloudy 27 -2.8 22 -5.7 81 81 NNW 5 7 30.53 1034 10 16.0934 0 0
1:35 am 01:35 Clear 26 -3.3 21 -6 82 82 NNW 3 6 30.53 1034 10 16.0934 0 0
1:55 am 01:55 Clear 25 -4 21 -6.3 84 84 N 6 9 30.53 1034 10 16.0934 0 0
2:15 am 02:15 Clear 26 -3.4 22 -5.8 84 84 N 6 9 30.56 1035 10 16.0934 0 0
2:35 am 02:35 Clear 26 -3.5 21 -6.1 82 82 NNE 8 13 30.56 1035 10 16.0934 0 0
2:55 am 02:55 Clear 25 -3.8 20 -6.4 82 82 NE 9 15 30.56 1035 10 16.0934 0 0
3:15 am 03:15 Clear 25 -4.1 20 -6.6 83 83 NNE 8 13 30.56 1035 10 16.0934 0 0
3:35 am 03:35 Mostly Cloudy 24 -4.6 20 -6.7 85 85 NNE 9 15 30.59 1036 10 16.0934 0 0
3:55 am 03:55 Cloudy 24 -4.5 20 -6.6 85 85 N 8 13 30.59 1036 10 16.0934 0 0
4:15 am 04:15 Cloudy 24 -4.5 20 -6.5 86 86 N 8 13 30.59 1036 10 16.0934 0 0
4:35 am 04:35 Cloudy 24 -4.2 20 -6.5 84 84 N 10 17 30.56 1035 10 16.0934 0 0
4:55 am 04:55 Cloudy 25 -4 20 -6.8 81 81 N 12 19 30.56 1035 10 16.0934 0 0
5:15 am 05:15 Cloudy 25 -4 20 -6.8 81 81 N 13 20 30.59 1036 10 16.0934 0 0
5:35 am 05:35 Cloudy 25 -3.8 20 -6.7 81 81 NNW 17 28 30.59 1036 10 16.0934 0 0
5:55 am 05:55 Cloudy 22 -5.6 13 -10.5 69 69 N 21 33 30.65 1038 10 16.0934 0 0
6:15 am 06:15 Partly Cloudy 19 -7 11 -11.5 71 71 N 18 30 30.68 1039 10 16.0934 0 0
6:35 am 06:35 Clear 19 -7.3 11 -11.5 72 72 N 14 22 30.71 1040 10 16.0934 0 0
6:55 am 06:55 Mostly Cloudy 19 -7.5 11 -11.5 73 73 N 15 24 30.71 1040 10 16.0934 0 0
7:10 am 07:10 Cloudy 19 -7.3 12 -11.3 73 73 N 20 31 30.71 1040 10 16.0934 0 0
7:35 am 07:35 Windy with Snow Likely 19 -7.1 11 -11.5 71 71 N 23 37 30.74 1041 10 16.0934 0 0
7:55 am 07:55 Cloudy 19 -7.1 11 -11.6 71 71 N 23 37 30.74 1041 10 16.0934 0 0
8:15 am 08:15 Cloudy 19 -7 11 -11.6 70 70 N 17 28 30.77 1042 10 16.0934 0 0
8:35 am 08:35 Cloudy 20 -6.9 11 -11.5 70 70 N 18 30 30.77 1042 10 16.0934 0 0
8:55 am 08:55 Cloudy 20 -6.5 11 -11.5 68 68 N 24 39 30.77 1042 10 16.0934 0 0
9:15 am 09:15 Cloudy 20 -6.7 11 -11.9 67 67 N 21 33 30.8 1043 10 16.0934 0 0
9:35 am 09:35 Cloudy 21 -6.1 11 -11.5 66 66 N 18 30 30.8 1043 10 16.0934 0 0
9:55 am 09:55 Cloudy with Light Snow 22 -5.7 11 -11.4 65 65 N 16 26 30.8 1043 10 16.0934 0 0
10:15 am 10:15 Cloudy 22 -5.7 11 -11.5 64 64 N 17 28 30.8 1043 10 16.0934 0 0
10:35 am 10:35 Cloudy 22 -5.6 11 -11.4 64 64 NNW 17 28 30.8 1043 10 16.0934 0 0
10:55 am 10:55 Cloudy with Light Snow 22 -5.6 11 -11.6 63 63 NNW 17 28 30.74 1041 10 16.0934 0 0
11:15 am 11:15 Cloudy 23 -5.1 11 -11.5 61 61 N 17 28 30.74 1041 10 16.0934 0 0
11:35 am 11:35 Cloudy 23 -5 11 -11.6 60 60 N 17 28 30.74 1041 10 16.0934 0 0
11:55 am 11:55 Cloudy 24 -4.4 11 -11.6 58 58 N 16 26 30.74 1041 10 16.0934 0 0
12:15 pm 12:15 Cloudy 24 -4.3 11 -11.5 58 58 NNW 16 26 30.71 1040 10 16.0934 0 0
12:35 pm 12:35 Cloudy 25 -3.9 12 -11.1 58 58 NNW 17 28 30.71 1040 10 16.0934 0 0
12:55 pm 12:55 Mostly Cloudy 26 -3.4 12 -11.3 55 55 NNW 18 30 30.65 1038 10 16.0934 0 0
1:15 pm 13:15 Partly Cloudy 26 -3.1 11 -11.8 51 51 NNW 15 24 30.65 1038 10 16.0934 0 0
1:35 pm 13:35 Partly Cloudy 27 -2.8 11 -11.8 50 50 NNW 15 24 30.62 1037 10 16.0934 0 0
1:55 pm 13:55 Sunny 28 -2.4 11 -11.6 50 50 NNW 15 24 30.62 1037 10 16.0934 0 0
2:15 pm 14:15 Sunny 28 -2 11 -11.7 48 48 N 13 20 30.62 1037 10 16.0934 0 0
2:35 pm 14:35 Sunny 29 -1.5 11 -11.8 46 46 N 16 26 30.62 1037 10 16.0934 0 0
2:55 pm 14:55 Sunny 30 -1.3 11 -11.5 46 46 NNW 15 24 30.62 1037 10 16.0934 0 0
3:15 pm 15:15 Sunny 30 -1.3 11 -11.6 46 46 NNW 17 28 30.62 1037 10 16.0934 0 0
3:35 pm 15:35 Sunny 29 -1.4 10 -12 45 45 NNW 18 30 30.62 1037 10 16.0934 0 0
3:55 pm 15:55 Sunny 29 -1.4 11 -11.8 45 45 N 16 26 30.62 1037 10 16.0934 0 0
4:15 pm 16:15 Sunny 29 -1.5 11 -11.8 46 46 NNW 15 24 30.62 1037 10 16.0934 0 0
4:35 pm 16:35 Sunny 29 -1.8 10 -12.1 46 46 N 13 20 30.62 1037 10 16.0934 0 0
4:55 pm 16:55 Sunny 28 -2.4 10 -12 48 48 N 10 17 30.62 1037 10 16.0934 0 0
5:15 pm 17:15 Sunny 26 -3.2 11 -11.6 53 53 N 9 15 30.62 1037 10 16.0934 0 0
5:35 pm 17:35 Clear 23 -5 11 -11.7 60 60 N 8 13 30.65 1038 10 16.0934 0 0
5:55 pm 17:55 Clear 21 -6.2 10 -12 64 64 N 7 11 30.65 1038 10 16.0934 0 0
6:15 pm 18:15 Clear 19 -7.3 10 -12.3 68 68 N 6 9 30.68 1039 10 16.0934 0 0
6:35 pm 18:35 Clear 18 -8 10 -12.5 70 70 N 6 9 30.68 1039 10 16.0934 0 0
6:55 pm 18:55 Clear 17 -8.2 9 -12.6 71 71 N 6 9 30.68 1039 10 16.0934 0 0
7:15 pm 19:15 Clear 15 -9.3 9 -12.9 75 75 NNW 5 7 30.68 1039 10 16.0934 0 0
7:35 pm 19:35 Clear 14 -10 8 -13.1 78 78 NNW 5 7 30.71 1040 10 16.0934 0 0
7:55 pm 19:55 Clear 16 -9 9 -12.9 74 74 NW 5 7 30.68 1039 10 16.0934 0 0
8:15 pm 20:15 Clear 13 -10.5 8 -13.2 81 81 Calm 30.71 1040 10 16.0934 0 0
8:35 pm 20:35 Clear 14 -10.2 9 -13 80 80 W 6 9 30.71 1040 10 16.0934 0 0
8:55 pm 20:55 Clear 13 -10.5 8 -13.4 79 79 W 3 6 30.71 1040 10 16.0934 0 0
9:15 pm 21:15 Clear 14 -10 9 -12.7 81 81 W 3 6 30.71 1040 10 16.0934 0 0
9:35 pm 21:35 Clear 13 -10.5 8 -13.5 79 79 W 3 6 30.71 1040 10 16.0934 0 0
9:55 pm 21:55 Clear 13 -10.3 8 -13.2 80 80 Calm 30.71 1040 10 16.0934 0 0
10:15 pm 22:15 Clear 13 -10.7 8 -13.5 80 80 W 3 6 30.71 1040 10 16.0934 0 0
10:35 pm 22:35 Clear 12 -11 8 -13.6 81 81 Calm 30.71 1040 10 16.0934 0 0
10:55 pm 22:55 Clear 13 -10.7 8 -13.5 80 80 Calm 30.71 1040 10 16.0934 0 0
11:15 pm 23:15 Clear 13 -10.7 7 -13.7 79 79 Calm 30.71 1040 10 16.0934 0 0
11:35 pm 23:35 Clear 13 -10.5 8 -13.1 81 81 Calm 30.71 1040 10 16.0934 0 0
11:55 pm 23:55 Clear 11 -11.6 7 -13.9 83 83 Calm 30.71 1040 10 16.0934 0 0

Powered by AerisWeather